#datetime,building,power
2022-10-03T00:00:00,sdl,4.81
2022-10-03T00:01:00,sdl,4.68
2022-10-03T00:02:00,sdl,4.79
2022-10-03T00:03:00,sdl,4.75
2022-10-03T00:04:00,sdl,4.79
2022-10-03T00:05:00,sdl,4.60
2022-10-03T00:06:00,sdl,4.64
2022-10-03T00:07:00,sdl,4.60
2022-10-03T00:08:00,sdl,4.71
2022-10-03T00:09:00,sdl,3.88
2022-10-03T00:10:00,sdl,3.32
2022-10-03T00:11:00,sdl,3.34
2022-10-03T00:12:00,sdl,3.57
2022-10-03T00:13:00,sdl,3.62
2022-10-03T00:14:00,sdl,2.68
2022-10-03T00:15:00,sdl,2.85
2022-10-03T00:16:00,sdl,2.94
2022-10-03T00:17:00,sdl,2.94
2022-10-03T00:18:00,sdl,2.44
2022-10-03T00:19:00,sdl,2.59
2022-10-03T00:20:00,sdl,2.57
2022-10-03T00:21:00,sdl,2.59
2022-10-03T00:22:00,sdl,2.47
2022-10-03T00:23:00,sdl,2.48
2022-10-03T00:24:00,sdl,2.48
2022-10-03T00:25:00,sdl,4.81
2022-10-03T00:26:00,sdl,5.76
2022-10-03T00:27:00,sdl,5.92
2022-10-03T00:28:00,sdl,6.54
2022-10-03T00:29:00,sdl,6.84
2022-10-03T00:30:00,sdl,6.82
2022-10-03T00:31:00,sdl,6.93
2022-10-03T00:32:00,sdl,4.78
2022-10-03T00:33:00,sdl,4.84
2022-10-03T00:34:00,sdl,4.83
2022-10-03T00:35:00,sdl,4.76
2022-10-03T00:36:00,sdl,2.58
2022-10-03T00:37:00,sdl,2.53
2022-10-03T00:38:00,sdl,2.56
2022-10-03T00:39:00,sdl,2.20
2022-10-03T00:40:00,sdl,2.13
2022-10-03T00:41:00,sdl,2.05
2022-10-03T00:42:00,sdl,2.16
2022-10-03T00:43:00,sdl,3.21
2022-10-03T00:44:00,sdl,3.14
2022-10-03T00:45:00,sdl,3.93
2022-10-03T00:46:00,sdl,4.34
2022-10-03T00:47:00,sdl,4.32
2022-10-03T00:48:00,sdl,3.98
2022-10-03T00:49:00,sdl,2.35
2022-10-03T00:50:00,sdl,2.11
2022-10-03T00:51:00,sdl,2.08
2022-10-03T00:52:00,sdl,2.03
2022-10-03T00:53:00,sdl,2.20
2022-10-03T00:54:00,sdl,2.28
2022-10-03T00:55:00,sdl,2.28
2022-10-03T00:56:00,sdl,2.28
2022-10-03T00:57:00,sdl,2.25
2022-10-03T00:58:00,sdl,2.26
2022-10-03T00:59:00,sdl,2.64
2022-10-03T01:00:00,sdl,2.21
2022-10-03T01:01:00,sdl,3.21
2022-10-03T01:02:00,sdl,3.29
2022-10-03T01:03:00,sdl,3.94
2022-10-03T01:04:00,sdl,4.08
2022-10-03T01:05:00,sdl,4.11
2022-10-03T01:06:00,sdl,3.26
2022-10-03T01:07:00,sdl,2.18
2022-10-03T01:08:00,sdl,2.16
2022-10-03T01:09:00,sdl,2.38
2022-10-03T01:10:00,sdl,2.15
2022-10-03T01:11:00,sdl,2.12
2022-10-03T01:12:00,sdl,2.03
2022-10-03T01:13:00,sdl,2.00
2022-10-03T01:14:00,sdl,2.39
2022-10-03T01:15:00,sdl,4.56
2022-10-03T01:16:00,sdl,4.36
2022-10-03T01:17:00,sdl,4.32
2022-10-03T01:18:00,sdl,4.27
2022-10-03T01:19:00,sdl,6.05
2022-10-03T01:20:00,sdl,5.21
2022-10-03T01:21:00,sdl,5.27
2022-10-03T01:22:00,sdl,5.31
2022-10-03T01:23:00,sdl,5.30
2022-10-03T01:24:00,sdl,4.26
2022-10-03T01:25:00,sdl,4.31
2022-10-03T01:26:00,sdl,4.16
2022-10-03T01:27:00,sdl,4.17
2022-10-03T01:28:00,sdl,4.16
2022-10-03T01:29:00,sdl,4.49
2022-10-03T01:30:00,sdl,4.18
2022-10-03T01:31:00,sdl,1.94
2022-10-03T01:32:00,sdl,1.97
2022-10-03T01:33:00,sdl,1.98
2022-10-03T01:34:00,sdl,2.24
2022-10-03T01:35:00,sdl,2.12
2022-10-03T01:36:00,sdl,3.23
2022-10-03T01:37:00,sdl,3.15
2022-10-03T01:38:00,sdl,3.38
2022-10-03T01:39:00,sdl,3.88
2022-10-03T01:40:00,sdl,3.65
2022-10-03T01:41:00,sdl,3.67
2022-10-03T01:42:00,sdl,3.91
2022-10-03T01:43:00,sdl,3.80
2022-10-03T01:44:00,sdl,4.28
2022-10-03T01:45:00,sdl,4.30
2022-10-03T01:46:00,sdl,4.25
2022-10-03T01:47:00,sdl,3.87
2022-10-03T01:48:00,sdl,3.85
2022-10-03T01:49:00,sdl,2.27
2022-10-03T01:50:00,sdl,2.06
2022-10-03T01:51:00,sdl,2.00
2022-10-03T01:52:00,sdl,1.90
2022-10-03T01:53:00,sdl,1.74
2022-10-03T01:54:00,sdl,3.96
2022-10-03T01:55:00,sdl,3.93
2022-10-03T01:56:00,sdl,3.97
2022-10-03T01:57:00,sdl,3.97
2022-10-03T01:58:00,sdl,4.03
2022-10-03T01:59:00,sdl,4.04
2022-10-03T02:00:00,sdl,4.36
2022-10-03T02:01:00,sdl,5.45
2022-10-03T02:02:00,sdl,5.47
2022-10-03T02:03:00,sdl,3.24
2022-10-03T02:04:00,sdl,3.29
2022-10-03T02:05:00,sdl,3.27
2022-10-03T02:06:00,sdl,3.30
2022-10-03T02:07:00,sdl,3.33
2022-10-03T02:08:00,sdl,3.25
2022-10-03T02:09:00,sdl,3.51
2022-10-03T02:10:00,sdl,3.19
2022-10-03T02:11:00,sdl,3.08
2022-10-03T02:12:00,sdl,3.09
2022-10-03T02:13:00,sdl,3.08
2022-10-03T02:14:00,sdl,3.12
2022-10-03T02:15:00,sdl,3.26
2022-10-03T02:16:00,sdl,3.64
2022-10-03T02:17:00,sdl,3.58
2022-10-03T02:18:00,sdl,3.30
2022-10-03T02:19:00,sdl,3.65
2022-10-03T02:20:00,sdl,5.17
2022-10-03T02:21:00,sdl,5.09
2022-10-03T02:22:00,sdl,5.21
2022-10-03T02:23:00,sdl,5.24
2022-10-03T02:24:00,sdl,5.22
2022-10-03T02:25:00,sdl,5.16
2022-10-03T02:26:00,sdl,5.18
2022-10-03T02:27:00,sdl,5.16
2022-10-03T02:28:00,sdl,5.12
2022-10-03T02:29:00,sdl,5.34
2022-10-03T02:30:00,sdl,4.97
2022-10-03T02:31:00,sdl,5.04
2022-10-03T02:32:00,sdl,5.05
2022-10-03T02:33:00,sdl,5.04
2022-10-03T02:34:00,sdl,4.94
2022-10-03T02:35:00,sdl,5.01
2022-10-03T02:36:00,sdl,4.97
2022-10-03T02:37:00,sdl,2.95
2022-10-03T02:38:00,sdl,2.91
2022-10-03T02:39:00,sdl,2.90
2022-10-03T02:40:00,sdl,3.04
2022-10-03T02:41:00,sdl,2.98
2022-10-03T02:42:00,sdl,2.82
2022-10-03T02:43:00,sdl,2.83
2022-10-03T02:44:00,sdl,3.17
2022-10-03T02:45:00,sdl,3.21
2022-10-03T02:46:00,sdl,2.86
2022-10-03T02:47:00,sdl,2.84
2022-10-03T02:48:00,sdl,2.90
2022-10-03T02:49:00,sdl,2.96
2022-10-03T02:50:00,sdl,3.24
2022-10-03T02:51:00,sdl,2.81
2022-10-03T02:52:00,sdl,2.87
2022-10-03T02:53:00,sdl,2.83
2022-10-03T02:54:00,sdl,2.80
2022-10-03T02:55:00,sdl,2.82
2022-10-03T02:56:00,sdl,2.83
2022-10-03T02:57:00,sdl,2.86
2022-10-03T02:58:00,sdl,2.91
2022-10-03T02:59:00,sdl,2.79
2022-10-03T03:00:00,sdl,2.79
2022-10-03T03:01:00,sdl,2.69
2022-10-03T03:02:00,sdl,2.65
2022-10-03T03:03:00,sdl,2.69
2022-10-03T03:04:00,sdl,2.67
2022-10-03T03:05:00,sdl,2.68
2022-10-03T03:06:00,sdl,2.65
2022-10-03T03:07:00,sdl,4.38
2022-10-03T03:08:00,sdl,4.36
2022-10-03T03:09:00,sdl,4.46
2022-10-03T03:10:00,sdl,4.46
2022-10-03T03:11:00,sdl,4.52
2022-10-03T03:12:00,sdl,4.91
2022-10-03T03:13:00,sdl,4.92
2022-10-03T03:14:00,sdl,7.07
2022-10-03T03:15:00,sdl,7.00
2022-10-03T03:16:00,sdl,7.33
2022-10-03T03:17:00,sdl,7.19
2022-10-03T03:18:00,sdl,7.25
2022-10-03T03:19:00,sdl,5.39
2022-10-03T03:20:00,sdl,5.69
2022-10-03T03:21:00,sdl,5.41
2022-10-03T03:22:00,sdl,5.38
2022-10-03T03:23:00,sdl,5.49
2022-10-03T03:24:00,sdl,5.45
2022-10-03T03:25:00,sdl,5.10
2022-10-03T03:26:00,sdl,5.40
2022-10-03T03:27:00,sdl,5.43
2022-10-03T03:28:00,sdl,5.39
2022-10-03T03:29:00,sdl,3.28
2022-10-03T03:30:00,sdl,3.61
2022-10-03T03:31:00,sdl,3.37
2022-10-03T03:32:00,sdl,3.33
2022-10-03T03:33:00,sdl,3.19
2022-10-03T03:34:00,sdl,3.26
2022-10-03T03:35:00,sdl,3.26
2022-10-03T03:36:00,sdl,3.20
2022-10-03T03:37:00,sdl,3.31
2022-10-03T03:38:00,sdl,3.38
2022-10-03T03:39:00,sdl,3.31
2022-10-03T03:40:00,sdl,3.70
2022-10-03T03:41:00,sdl,3.37
2022-10-03T03:42:00,sdl,3.10
2022-10-03T03:43:00,sdl,3.55
2022-10-03T03:44:00,sdl,3.54
2022-10-03T03:45:00,sdl,3.60
2022-10-03T03:46:00,sdl,3.24
2022-10-03T03:47:00,sdl,3.22
2022-10-03T03:48:00,sdl,3.20
2022-10-03T03:49:00,sdl,3.30
2022-10-03T03:50:00,sdl,3.35
2022-10-03T03:51:00,sdl,3.27
2022-10-03T03:52:00,sdl,3.28
2022-10-03T03:53:00,sdl,3.29
2022-10-03T03:54:00,sdl,3.31
2022-10-03T03:55:00,sdl,5.46
2022-10-03T03:56:00,sdl,5.43
2022-10-03T03:57:00,sdl,5.22
2022-10-03T03:58:00,sdl,5.20
2022-10-03T03:59:00,sdl,5.09
2022-10-03T04:00:00,sdl,5.14
2022-10-03T04:01:00,sdl,5.10
2022-10-03T04:02:00,sdl,5.16
2022-10-03T04:03:00,sdl,5.06
2022-10-03T04:04:00,sdl,5.04
2022-10-03T04:05:00,sdl,2.82
2022-10-03T04:06:00,sdl,2.97
2022-10-03T04:07:00,sdl,2.85
2022-10-03T04:08:00,sdl,2.82
2022-10-03T04:09:00,sdl,2.78
2022-10-03T04:10:00,sdl,2.79
2022-10-03T04:11:00,sdl,3.43
2022-10-03T04:12:00,sdl,3.09
2022-10-03T04:13:00,sdl,3.11
2022-10-03T04:14:00,sdl,2.77
2022-10-03T04:15:00,sdl,2.87
2022-10-03T04:16:00,sdl,2.87
2022-10-03T04:17:00,sdl,2.83
2022-10-03T04:18:00,sdl,2.80
2022-10-03T04:19:00,sdl,2.76
2022-10-03T04:20:00,sdl,2.81
2022-10-03T04:21:00,sdl,3.14
2022-10-03T04:22:00,sdl,5.01
2022-10-03T04:23:00,sdl,5.15
2022-10-03T04:24:00,sdl,5.05
2022-10-03T04:25:00,sdl,5.06
2022-10-03T04:26:00,sdl,5.08
2022-10-03T04:27:00,sdl,5.10
2022-10-03T04:28:00,sdl,5.01
2022-10-03T04:29:00,sdl,5.07
2022-10-03T04:30:00,sdl,5.10
2022-10-03T04:31:00,sdl,5.09
2022-10-03T04:32:00,sdl,5.21
2022-10-03T04:33:00,sdl,5.21
2022-10-03T04:34:00,sdl,5.19
2022-10-03T04:35:00,sdl,5.18
2022-10-03T04:36:00,sdl,5.19
2022-10-03T04:37:00,sdl,5.12
2022-10-03T04:38:00,sdl,4.67
2022-10-03T04:39:00,sdl,4.60
2022-10-03T04:40:00,sdl,4.74
2022-10-03T04:41:00,sdl,4.64
2022-10-03T04:42:00,sdl,4.60
2022-10-03T04:43:00,sdl,4.64
2022-10-03T04:44:00,sdl,4.69
2022-10-03T04:45:00,sdl,4.84
2022-10-03T04:46:00,sdl,4.96
2022-10-03T04:47:00,sdl,4.92
2022-10-03T04:48:00,sdl,4.58
2022-10-03T04:49:00,sdl,4.60
2022-10-03T04:50:00,sdl,4.60
2022-10-03T04:51:00,sdl,2.89
2022-10-03T04:52:00,sdl,3.67
2022-10-03T04:53:00,sdl,3.68
2022-10-03T04:54:00,sdl,4.09
2022-10-03T04:55:00,sdl,4.05
2022-10-03T04:56:00,sdl,4.00
2022-10-03T04:57:00,sdl,4.00
2022-10-03T04:58:00,sdl,4.03
2022-10-03T04:59:00,sdl,3.33
2022-10-03T05:00:00,sdl,3.24
2022-10-03T05:01:00,sdl,3.20
2022-10-03T05:02:00,sdl,3.23
2022-10-03T05:03:00,sdl,3.31
2022-10-03T05:04:00,sdl,3.29
2022-10-03T05:05:00,sdl,3.62
2022-10-03T05:06:00,sdl,3.44
2022-10-03T05:07:00,sdl,3.46
2022-10-03T05:08:00,sdl,3.46
2022-10-03T05:09:00,sdl,3.42
2022-10-03T05:10:00,sdl,3.41
2022-10-03T05:11:00,sdl,3.40
2022-10-03T05:12:00,sdl,3.30
2022-10-03T05:13:00,sdl,3.36
2022-10-03T05:14:00,sdl,3.35
2022-10-03T05:15:00,sdl,5.54
2022-10-03T05:16:00,sdl,5.83
2022-10-03T05:17:00,sdl,5.43
2022-10-03T05:18:00,sdl,5.46
2022-10-03T05:19:00,sdl,5.39
2022-10-03T05:20:00,sdl,5.80
2022-10-03T05:21:00,sdl,5.83
2022-10-03T05:22:00,sdl,5.43
2022-10-03T05:23:00,sdl,5.42
2022-10-03T05:24:00,sdl,5.48
2022-10-03T05:25:00,sdl,5.52
2022-10-03T05:26:00,sdl,5.50
2022-10-03T05:27:00,sdl,5.50
2022-10-03T05:28:00,sdl,5.82
2022-10-03T05:29:00,sdl,5.54
2022-10-03T05:30:00,sdl,3.36
2022-10-03T05:31:00,sdl,3.38
2022-10-03T05:32:00,sdl,3.35
2022-10-03T05:33:00,sdl,3.69
2022-10-03T05:34:00,sdl,2.82
2022-10-03T05:35:00,sdl,2.75
2022-10-03T05:36:00,sdl,2.75
2022-10-03T05:37:00,sdl,2.76
2022-10-03T05:38:00,sdl,2.77
2022-10-03T05:39:00,sdl,2.86
2022-10-03T05:40:00,sdl,2.84
2022-10-03T05:41:00,sdl,2.99
2022-10-03T05:42:00,sdl,2.99
2022-10-03T05:43:00,sdl,2.92
2022-10-03T05:44:00,sdl,2.89
2022-10-03T05:45:00,sdl,2.92
2022-10-03T05:46:00,sdl,2.89
2022-10-03T05:47:00,sdl,2.90
2022-10-03T05:48:00,sdl,3.25
2022-10-03T05:49:00,sdl,3.30
2022-10-03T05:50:00,sdl,2.90
2022-10-03T05:51:00,sdl,2.82
2022-10-03T05:52:00,sdl,2.90
2022-10-03T05:53:00,sdl,2.89
2022-10-03T05:54:00,sdl,2.90
2022-10-03T05:55:00,sdl,2.92
2022-10-03T05:56:00,sdl,2.95
2022-10-03T05:57:00,sdl,2.94
2022-10-03T05:58:00,sdl,2.98
2022-10-03T05:59:00,sdl,3.07
2022-10-03T06:00:00,sdl,2.94
2022-10-03T06:01:00,sdl,5.08
2022-10-03T06:02:00,sdl,5.40
2022-10-03T06:03:00,sdl,5.07
2022-10-03T06:04:00,sdl,5.02
2022-10-03T06:05:00,sdl,5.00
2022-10-03T06:06:00,sdl,4.94
2022-10-03T06:07:00,sdl,5.00
2022-10-03T06:08:00,sdl,5.03
2022-10-03T06:09:00,sdl,4.87
2022-10-03T06:10:00,sdl,4.88
2022-10-03T06:11:00,sdl,6.56
2022-10-03T06:12:00,sdl,4.48
2022-10-03T06:13:00,sdl,4.48
2022-10-03T06:14:00,sdl,4.44
2022-10-03T06:15:00,sdl,4.56
2022-10-03T06:16:00,sdl,4.82
2022-10-03T06:17:00,sdl,4.83
2022-10-03T06:18:00,sdl,4.71
2022-10-03T06:19:00,sdl,4.73
2022-10-03T06:20:00,sdl,6.98
2022-10-03T06:21:00,sdl,7.45
2022-10-03T06:22:00,sdl,5.77
2022-10-03T06:23:00,sdl,5.87
2022-10-03T06:24:00,sdl,6.16
2022-10-03T06:25:00,sdl,6.48
2022-10-03T06:26:00,sdl,7.03
2022-10-03T06:27:00,sdl,6.62
2022-10-03T06:28:00,sdl,6.69
2022-10-03T06:29:00,sdl,8.88
2022-10-03T06:30:00,sdl,8.88
2022-10-03T06:31:00,sdl,8.57
2022-10-03T06:32:00,sdl,8.54
2022-10-03T06:33:00,sdl,8.72
2022-10-03T06:34:00,sdl,8.76
2022-10-03T06:35:00,sdl,8.79
2022-10-03T06:36:00,sdl,8.97
2022-10-03T06:37:00,sdl,8.70
2022-10-03T06:38:00,sdl,8.71
2022-10-03T06:39:00,sdl,8.70
2022-10-03T06:40:00,sdl,8.67
2022-10-03T06:41:00,sdl,8.64
2022-10-03T06:42:00,sdl,8.72
2022-10-03T06:43:00,sdl,8.85
2022-10-03T06:44:00,sdl,6.42
2022-10-03T06:45:00,sdl,6.33
2022-10-03T06:46:00,sdl,6.80
2022-10-03T06:47:00,sdl,6.73
2022-10-03T06:48:00,sdl,6.68
2022-10-03T06:49:00,sdl,6.61
2022-10-03T06:50:00,sdl,6.57
2022-10-03T06:51:00,sdl,6.72
2022-10-03T06:52:00,sdl,6.78
2022-10-03T06:53:00,sdl,6.72
2022-10-03T06:54:00,sdl,6.77
2022-10-03T06:55:00,sdl,6.77
2022-10-03T06:56:00,sdl,7.41
2022-10-03T06:57:00,sdl,6.98
2022-10-03T06:58:00,sdl,6.60
2022-10-03T06:59:00,sdl,6.54
2022-10-03T07:00:00,sdl,6.71
2022-10-03T07:01:00,sdl,6.75
2022-10-03T07:02:00,sdl,6.72
2022-10-03T07:03:00,sdl,6.72
2022-10-03T07:04:00,sdl,6.72
2022-10-03T07:05:00,sdl,6.69
2022-10-03T07:06:00,sdl,7.11
2022-10-03T07:07:00,sdl,6.84
2022-10-03T07:08:00,sdl,6.95
2022-10-03T07:09:00,sdl,6.86
2022-10-03T07:10:00,sdl,6.74
2022-10-03T07:11:00,sdl,6.71
2022-10-03T07:12:00,sdl,6.73
2022-10-03T07:13:00,sdl,6.69
2022-10-03T07:14:00,sdl,6.73
2022-10-03T07:15:00,sdl,6.67
2022-10-03T07:16:00,sdl,8.85
2022-10-03T07:17:00,sdl,8.85
2022-10-03T07:18:00,sdl,8.91
2022-10-03T07:19:00,sdl,8.85
2022-10-03T07:20:00,sdl,8.83
2022-10-03T07:21:00,sdl,8.79
2022-10-03T07:22:00,sdl,8.61
2022-10-03T07:23:00,sdl,8.57
2022-10-03T07:24:00,sdl,8.77
2022-10-03T07:25:00,sdl,8.86
2022-10-03T07:26:00,sdl,8.98
2022-10-03T07:27:00,sdl,8.88
2022-10-03T07:28:00,sdl,8.81
2022-10-03T07:29:00,sdl,9.32
2022-10-03T07:30:00,sdl,9.20
2022-10-03T07:31:00,sdl,8.88
2022-10-03T07:32:00,sdl,10.62
2022-10-03T07:33:00,sdl,8.45
2022-10-03T07:34:00,sdl,8.33
2022-10-03T07:35:00,sdl,8.46
2022-10-03T07:36:00,sdl,8.51
2022-10-03T07:37:00,sdl,8.46
2022-10-03T07:38:00,sdl,8.47
2022-10-03T07:39:00,sdl,8.44
2022-10-03T07:40:00,sdl,8.47
2022-10-03T07:41:00,sdl,8.08
2022-10-03T07:42:00,sdl,8.23
2022-10-03T07:43:00,sdl,8.14
2022-10-03T07:44:00,sdl,8.21
2022-10-03T07:45:00,sdl,6.56
2022-10-03T07:46:00,sdl,6.49
2022-10-03T07:47:00,sdl,6.51
2022-10-03T07:48:00,sdl,6.57
2022-10-03T07:49:00,sdl,6.52
2022-10-03T07:50:00,sdl,5.89
2022-10-03T07:51:00,sdl,4.56
2022-10-03T07:52:00,sdl,6.82
2022-10-03T07:53:00,sdl,6.59
2022-10-03T07:54:00,sdl,6.45
2022-10-03T07:55:00,sdl,5.50
2022-10-03T07:56:00,sdl,5.71
2022-10-03T07:57:00,sdl,6.11
2022-10-03T07:58:00,sdl,6.84
2022-10-03T07:59:00,sdl,6.48
2022-10-03T08:00:00,sdl,6.58
2022-10-03T08:01:00,sdl,6.65
2022-10-03T08:02:00,sdl,6.68
2022-10-03T08:03:00,sdl,6.58
2022-10-03T08:04:00,sdl,6.60
2022-10-03T08:05:00,sdl,6.57
2022-10-03T08:06:00,sdl,6.90
2022-10-03T08:07:00,sdl,6.54
2022-10-03T08:08:00,sdl,6.58
2022-10-03T08:09:00,sdl,6.62
2022-10-03T08:10:00,sdl,8.96
2022-10-03T08:11:00,sdl,8.86
2022-10-03T08:12:00,sdl,8.49
2022-10-03T08:13:00,sdl,8.64
2022-10-03T08:14:00,sdl,8.79
2022-10-03T08:15:00,sdl,9.45
2022-10-03T08:16:00,sdl,8.78
2022-10-03T08:17:00,sdl,9.18
2022-10-03T08:18:00,sdl,8.84
2022-10-03T08:19:00,sdl,8.79
2022-10-03T08:20:00,sdl,8.77
2022-10-03T08:21:00,sdl,8.79
2022-10-03T08:22:00,sdl,8.81
2022-10-03T08:23:00,sdl,8.74
2022-10-03T08:24:00,sdl,8.70
2022-10-03T08:25:00,sdl,6.41
2022-10-03T08:26:00,sdl,6.76
2022-10-03T08:27:00,sdl,7.34
2022-10-03T08:28:00,sdl,6.88
2022-10-03T08:29:00,sdl,6.44
2022-10-03T08:30:00,sdl,6.47
2022-10-03T08:31:00,sdl,6.47
2022-10-03T08:32:00,sdl,6.44
2022-10-03T08:33:00,sdl,6.63
2022-10-03T08:34:00,sdl,6.62
2022-10-03T08:35:00,sdl,6.93
2022-10-03T08:36:00,sdl,6.92
2022-10-03T08:37:00,sdl,6.91
2022-10-03T08:38:00,sdl,6.87
2022-10-03T08:39:00,sdl,6.88
2022-10-03T08:40:00,sdl,6.76
2022-10-03T08:41:00,sdl,6.87
2022-10-03T08:42:00,sdl,9.18
2022-10-03T08:43:00,sdl,9.13
2022-10-03T08:44:00,sdl,9.11
2022-10-03T08:45:00,sdl,9.30
2022-10-03T08:46:00,sdl,9.29
2022-10-03T08:47:00,sdl,9.25
2022-10-03T08:48:00,sdl,9.26
2022-10-03T08:49:00,sdl,8.67
2022-10-03T08:50:00,sdl,9.34
2022-10-03T08:51:00,sdl,9.77
2022-10-03T08:52:00,sdl,7.22
2022-10-03T08:53:00,sdl,7.21
2022-10-03T08:54:00,sdl,6.78
2022-10-03T08:55:00,sdl,7.28
2022-10-03T08:56:00,sdl,7.30
2022-10-03T08:57:00,sdl,7.19
2022-10-03T08:58:00,sdl,7.52
2022-10-03T08:59:00,sdl,7.56
2022-10-03T09:00:00,sdl,7.14
2022-10-03T09:01:00,sdl,7.12
2022-10-03T09:02:00,sdl,9.32
2022-10-03T09:03:00,sdl,9.04
2022-10-03T09:04:00,sdl,8.98
2022-10-03T09:05:00,sdl,9.01
2022-10-03T09:06:00,sdl,8.46
2022-10-03T09:07:00,sdl,9.02
2022-10-03T09:08:00,sdl,9.23
2022-10-03T09:09:00,sdl,9.19
2022-10-03T09:10:00,sdl,7.22
2022-10-03T09:11:00,sdl,7.31
2022-10-03T09:12:00,sdl,7.26
2022-10-03T09:13:00,sdl,7.24
2022-10-03T09:14:00,sdl,7.37
2022-10-03T09:15:00,sdl,7.09
2022-10-03T09:16:00,sdl,7.05
2022-10-03T09:17:00,sdl,9.30
2022-10-03T09:18:00,sdl,8.90
2022-10-03T09:19:00,sdl,11.20
2022-10-03T09:20:00,sdl,10.94
2022-10-03T09:21:00,sdl,10.88
2022-10-03T09:22:00,sdl,9.12
2022-10-03T09:23:00,sdl,9.09
2022-10-03T09:24:00,sdl,9.17
2022-10-03T09:25:00,sdl,9.52
2022-10-03T09:26:00,sdl,9.48
2022-10-03T09:27:00,sdl,8.60
2022-10-03T09:28:00,sdl,9.14
2022-10-03T09:29:00,sdl,8.82
2022-10-03T09:30:00,sdl,9.24
2022-10-03T09:31:00,sdl,9.13
2022-10-03T09:32:00,sdl,9.07
2022-10-03T09:33:00,sdl,9.06
2022-10-03T09:34:00,sdl,6.70
2022-10-03T09:35:00,sdl,6.74
2022-10-03T09:36:00,sdl,6.74
2022-10-03T09:37:00,sdl,6.83
2022-10-03T09:38:00,sdl,6.75
2022-10-03T09:39:00,sdl,6.73
2022-10-03T09:40:00,sdl,6.75
2022-10-03T09:41:00,sdl,6.77
2022-10-03T09:42:00,sdl,6.75
2022-10-03T09:43:00,sdl,6.46
2022-10-03T09:44:00,sdl,6.73
2022-10-03T09:45:00,sdl,6.58
2022-10-03T09:46:00,sdl,6.61
2022-10-03T09:47:00,sdl,6.75
2022-10-03T09:48:00,sdl,5.21
2022-10-03T09:49:00,sdl,6.27
2022-10-03T09:50:00,sdl,6.29
2022-10-03T09:51:00,sdl,6.41
2022-10-03T09:52:00,sdl,7.32
2022-10-03T09:53:00,sdl,6.66
2022-10-03T09:54:00,sdl,8.29
2022-10-03T09:55:00,sdl,8.28
2022-10-03T09:56:00,sdl,8.74
2022-10-03T09:57:00,sdl,9.65
2022-10-03T09:58:00,sdl,9.96
2022-10-03T09:59:00,sdl,9.33
2022-10-03T10:00:00,sdl,8.32
2022-10-03T10:01:00,sdl,9.01
2022-10-03T10:02:00,sdl,8.97
2022-10-03T10:03:00,sdl,8.13
2022-10-03T10:04:00,sdl,8.42
2022-10-03T10:05:00,sdl,7.79
2022-10-03T10:06:00,sdl,7.71
2022-10-03T10:07:00,sdl,7.71
2022-10-03T10:08:00,sdl,7.74
2022-10-03T10:09:00,sdl,7.71
2022-10-03T10:10:00,sdl,6.21
2022-10-03T10:11:00,sdl,9.99
2022-10-03T10:12:00,sdl,9.98
2022-10-03T10:13:00,sdl,10.04
2022-10-03T10:14:00,sdl,10.74
2022-10-03T10:15:00,sdl,10.74
2022-10-03T10:16:00,sdl,10.71
2022-10-03T10:17:00,sdl,10.62
2022-10-03T10:18:00,sdl,10.66
2022-10-03T10:19:00,sdl,10.63
2022-10-03T10:20:00,sdl,10.61
2022-10-03T10:21:00,sdl,11.00
2022-10-03T10:22:00,sdl,11.35
2022-10-03T10:23:00,sdl,10.59
2022-10-03T10:24:00,sdl,10.41
2022-10-03T10:25:00,sdl,10.51
2022-10-03T10:26:00,sdl,11.98
2022-10-03T10:27:00,sdl,9.36
2022-10-03T10:28:00,sdl,10.20
2022-10-03T10:29:00,sdl,9.37
2022-10-03T10:30:00,sdl,9.44
2022-10-03T10:31:00,sdl,9.04
2022-10-03T10:32:00,sdl,9.85
2022-10-03T10:33:00,sdl,10.15
2022-10-03T10:34:00,sdl,9.51
2022-10-03T10:35:00,sdl,9.27
2022-10-03T10:36:00,sdl,10.10
2022-10-03T10:37:00,sdl,10.47
2022-10-03T10:38:00,sdl,9.44
2022-10-03T10:39:00,sdl,9.56
2022-10-03T10:40:00,sdl,9.48
2022-10-03T10:41:00,sdl,9.37
2022-10-03T10:42:00,sdl,9.35
2022-10-03T10:43:00,sdl,9.35
2022-10-03T10:44:00,sdl,9.72
2022-10-03T10:45:00,sdl,11.25
2022-10-03T10:46:00,sdl,9.98
2022-10-03T10:47:00,sdl,9.97
2022-10-03T10:48:00,sdl,10.42
2022-10-03T10:49:00,sdl,10.52
2022-10-03T10:50:00,sdl,10.13
2022-10-03T10:51:00,sdl,10.08
2022-10-03T10:52:00,sdl,11.29
2022-10-03T10:53:00,sdl,11.34
2022-10-03T10:54:00,sdl,11.45
2022-10-03T10:55:00,sdl,9.37
2022-10-03T10:56:00,sdl,9.26
2022-10-03T10:57:00,sdl,9.45
2022-10-03T10:58:00,sdl,9.46
2022-10-03T10:59:00,sdl,8.63
2022-10-03T11:00:00,sdl,7.96
2022-10-03T11:01:00,sdl,7.96
2022-10-03T11:02:00,sdl,7.84
2022-10-03T11:03:00,sdl,7.14
2022-10-03T11:04:00,sdl,6.90
2022-10-03T11:05:00,sdl,7.57
2022-10-03T11:06:00,sdl,8.69
2022-10-03T11:07:00,sdl,8.94
2022-10-03T11:08:00,sdl,8.70
2022-10-03T11:09:00,sdl,8.23
2022-10-03T11:10:00,sdl,8.28
2022-10-03T11:11:00,sdl,8.28
2022-10-03T11:12:00,sdl,8.34
2022-10-03T11:13:00,sdl,8.30
2022-10-03T11:14:00,sdl,8.46
2022-10-03T11:15:00,sdl,9.20
2022-10-03T11:16:00,sdl,8.63
2022-10-03T11:17:00,sdl,8.93
2022-10-03T11:18:00,sdl,9.05
2022-10-03T11:19:00,sdl,8.70
2022-10-03T11:20:00,sdl,8.73
2022-10-03T11:21:00,sdl,10.19
2022-10-03T11:22:00,sdl,10.02
2022-10-03T11:23:00,sdl,10.10
2022-10-03T11:24:00,sdl,10.18
2022-10-03T11:25:00,sdl,9.65
2022-10-03T11:26:00,sdl,9.77
2022-10-03T11:27:00,sdl,10.45
2022-10-03T11:28:00,sdl,10.12
2022-10-03T11:29:00,sdl,10.44
2022-10-03T11:30:00,sdl,12.24
2022-10-03T11:31:00,sdl,10.81
2022-10-03T11:32:00,sdl,10.58
2022-10-03T11:33:00,sdl,8.01
2022-10-03T11:34:00,sdl,7.95
2022-10-03T11:35:00,sdl,6.92
2022-10-03T11:36:00,sdl,6.99
2022-10-03T11:37:00,sdl,6.98
2022-10-03T11:38:00,sdl,7.49
2022-10-03T11:39:00,sdl,8.32
2022-10-03T11:40:00,sdl,8.83
2022-10-03T11:41:00,sdl,8.70
2022-10-03T11:42:00,sdl,8.59
2022-10-03T11:43:00,sdl,8.61
2022-10-03T11:44:00,sdl,8.65
2022-10-03T11:45:00,sdl,8.91
2022-10-03T11:46:00,sdl,9.17
2022-10-03T11:47:00,sdl,8.82
2022-10-03T11:48:00,sdl,8.73
2022-10-03T11:49:00,sdl,7.08
2022-10-03T11:50:00,sdl,7.45
2022-10-03T11:51:00,sdl,6.97
2022-10-03T11:52:00,sdl,7.65
2022-10-03T11:53:00,sdl,7.10
2022-10-03T11:54:00,sdl,7.14
2022-10-03T11:55:00,sdl,8.43
2022-10-03T11:56:00,sdl,8.55
2022-10-03T11:57:00,sdl,9.80
2022-10-03T11:58:00,sdl,7.93
2022-10-03T11:59:00,sdl,9.42
2022-10-03T12:00:00,sdl,9.49
2022-10-03T12:01:00,sdl,9.88
2022-10-03T12:02:00,sdl,9.53
2022-10-03T12:03:00,sdl,10.50
2022-10-03T12:04:00,sdl,10.27
2022-10-03T12:05:00,sdl,10.45
2022-10-03T12:06:00,sdl,10.17
2022-10-03T12:07:00,sdl,7.77
2022-10-03T12:08:00,sdl,7.66
2022-10-03T12:09:00,sdl,10.92
2022-10-03T12:10:00,sdl,10.77
2022-10-03T12:11:00,sdl,9.66
2022-10-03T12:12:00,sdl,10.06
2022-10-03T12:13:00,sdl,11.56
2022-10-03T12:14:00,sdl,11.75
2022-10-03T12:15:00,sdl,11.67
2022-10-03T12:16:00,sdl,11.63
2022-10-03T12:17:00,sdl,11.85
2022-10-03T12:18:00,sdl,11.63
2022-10-03T12:19:00,sdl,11.73
2022-10-03T12:20:00,sdl,11.77
2022-10-03T12:21:00,sdl,11.50
2022-10-03T12:22:00,sdl,11.55
2022-10-03T12:23:00,sdl,10.93
2022-10-03T12:24:00,sdl,10.81
2022-10-03T12:25:00,sdl,7.57
2022-10-03T12:26:00,sdl,7.55
2022-10-03T12:27:00,sdl,8.37
2022-10-03T12:28:00,sdl,7.51
2022-10-03T12:29:00,sdl,8.09
2022-10-03T12:30:00,sdl,7.38
2022-10-03T12:31:00,sdl,10.23
2022-10-03T12:32:00,sdl,10.72
2022-10-03T12:33:00,sdl,10.54
2022-10-03T12:34:00,sdl,11.10
2022-10-03T12:35:00,sdl,11.80
2022-10-03T12:36:00,sdl,12.24
2022-10-03T12:37:00,sdl,10.62
2022-10-03T12:38:00,sdl,11.59
2022-10-03T12:39:00,sdl,11.63
2022-10-03T12:40:00,sdl,11.71
2022-10-03T12:41:00,sdl,10.08
2022-10-03T12:42:00,sdl,10.00
2022-10-03T12:43:00,sdl,10.29
2022-10-03T12:44:00,sdl,10.40
2022-10-03T12:45:00,sdl,10.25
2022-10-03T12:46:00,sdl,10.32
2022-10-03T12:47:00,sdl,11.51
2022-10-03T12:48:00,sdl,11.50
2022-10-03T12:49:00,sdl,11.77
2022-10-03T12:50:00,sdl,12.35
2022-10-03T12:51:00,sdl,12.36
2022-10-03T12:52:00,sdl,12.57
2022-10-03T12:53:00,sdl,10.17
2022-10-03T12:54:00,sdl,10.29
2022-10-03T12:55:00,sdl,10.51
2022-10-03T12:56:00,sdl,10.55
2022-10-03T12:57:00,sdl,8.45
2022-10-03T12:58:00,sdl,8.13
2022-10-03T12:59:00,sdl,9.39
2022-10-03T13:00:00,sdl,9.95
2022-10-03T13:01:00,sdl,10.19
2022-10-03T13:02:00,sdl,9.45
2022-10-03T13:03:00,sdl,9.46
2022-10-03T13:04:00,sdl,12.38
2022-10-03T13:05:00,sdl,11.98
2022-10-03T13:06:00,sdl,12.60
2022-10-03T13:07:00,sdl,14.20
2022-10-03T13:08:00,sdl,11.68
2022-10-03T13:09:00,sdl,11.21
2022-10-03T13:10:00,sdl,11.22
2022-10-03T13:11:00,sdl,11.70
2022-10-03T13:12:00,sdl,11.38
2022-10-03T13:13:00,sdl,8.53
2022-10-03T13:14:00,sdl,9.57
2022-10-03T13:15:00,sdl,8.71
2022-10-03T13:16:00,sdl,9.35
2022-10-03T13:17:00,sdl,9.21
2022-10-03T13:18:00,sdl,9.15
2022-10-03T13:19:00,sdl,11.67
2022-10-03T13:20:00,sdl,12.97
2022-10-03T13:21:00,sdl,12.14
2022-10-03T13:22:00,sdl,12.53
2022-10-03T13:23:00,sdl,12.76
2022-10-03T13:24:00,sdl,13.03
2022-10-03T13:25:00,sdl,12.74
2022-10-03T13:26:00,sdl,12.65
2022-10-03T13:27:00,sdl,13.00
2022-10-03T13:28:00,sdl,13.46
2022-10-03T13:29:00,sdl,11.95
2022-10-03T13:30:00,sdl,10.72
2022-10-03T13:31:00,sdl,10.73
2022-10-03T13:32:00,sdl,10.86
2022-10-03T13:33:00,sdl,10.77
2022-10-03T13:34:00,sdl,10.30
2022-10-03T13:35:00,sdl,10.44
2022-10-03T13:36:00,sdl,11.50
2022-10-03T13:37:00,sdl,11.43
2022-10-03T13:38:00,sdl,11.50
2022-10-03T13:39:00,sdl,11.62
2022-10-03T13:40:00,sdl,11.82
2022-10-03T13:41:00,sdl,9.88